DW6016 Weather Reports


Display with metric or nautical units.
time (UTC)temp
F
wind
direction
speed
MPH
gust
MPH
rain 1hr
in
rain 24hr
in
rain mn
in
humidity
%
barometer
mb
20260831212235 79 301 0.0 2.0 0.00 0.00 0.00 48 1009.1
20260831211732 79 283 0.0 1.0 0.00 0.00 0.00 45 1009.1
20260831211228 79 322 0.0 0.0 0.00 0.00 0.00 47 1009.2
20260831210723 78 322 0.0 0.0 0.00 0.00 0.00 47 1009.1
20260831210219 77 311 1.0 1.0 0.00 0.00 0.00 48 1009.4
20260831205718 77 316 3.0 3.0 0.00 0.00 0.00 49 1009.2
20260831205214 78 315 2.0 2.0 0.00 0.00 0.00 49 1009.2
20260831204709 78 300 1.0 1.0 0.00 0.00 0.00 49 1009.3
20260831204208 78 312 4.0 5.0 0.00 0.00 0.00 48 1009.5
20260831203708 77 299 2.0 2.0 0.00 0.00 0.00 50 1009.4
20260831203202 78 301 3.0 3.0 0.00 0.00 0.00 50 1009.7
20260831202700 78 303 3.0 3.0 0.00 0.00 0.00 49 1009.6
20260831202155 78 310 2.0 2.0 0.00 0.00 0.00 51 1009.7
20260831201655 78 309 0.0 0.0 0.00 0.00 0.00 51 1009.5
20260831201155 77 220 1.0 1.0 0.00 0.00 0.00 51 1009.7
20260831200651 76 297 1.0 2.0 0.00 0.00 0.00 53 1009.6
20260831200151 76 303 0.0 0.0 0.00 0.00 0.00 52 1009.7
20260831195646 77 314 3.0 3.0 0.00 0.00 0.00 51 1009.9
20260831195141 77 275 2.0 3.0 0.00 0.00 0.00 52 1010.2
20260831194636 76 304 0.0 0.0 0.00 0.00 0.00 52 1010.2
20260831194131 76 287 2.0 2.0 0.00 0.00 0.00 51 1010.2
20260831193626 75 294 1.0 1.0 0.00 0.00 0.00 53 1010.2
20260831193121 75 302 0.0 1.0 0.00 0.00 0.00 55 1010.1
20260831192616 75 295 1.0 2.0 0.00 0.00 0.00 55 1010.4
20260831192112 75 314 3.0 5.0 0.00 0.00 0.00 54 1010.6
20260831191608 75 303 2.0 3.0 0.00 0.00 0.00 54 1010.4
20260831191103 75 288 2.0 3.0 0.00 0.00 0.00 55 1010.4
20260831190558 75 311 1.0 2.0 0.00 0.00 0.00 56 1010.7
20260831190056 75 275 0.0 1.0 0.00 0.00 0.00 56 1010.7
20260831185553 75 302 0.0 0.0 0.00 0.00 0.00 55 1010.6
20260831185048 74 285 1.0 1.0 0.00 0.00 0.00 56 1011.0
20260831184548 74 301 1.0 1.0 0.00 0.00 0.00 57 1011.0
20260831184044 73 282 2.0 2.0 0.00 0.00 0.00 59 1010.9
20260831183543 73 289 2.0 3.0 0.00 0.00 0.00 58 1010.8
20260831183042 73 163 1.0 2.0 0.00 0.00 0.00 60 1011.1
20260831182537 71 290 0.0 1.0 0.00 0.00 0.00 61 1011.2
20260831182033 71 200 1.0 2.0 0.00 0.00 0.00 62 1011.2
20260831181532 71 298 1.0 1.0 0.00 0.00 0.00 62 1011.0
20260831181032 71 282 1.0 1.0 0.00 0.00 0.00 61 1011.5
20260831180527 70 303 0.0 1.0 0.00 0.00 0.00 65 1011.5
20260831180023 70 293 0.0 1.0 0.00 0.00 0.00 63 1011.3
20260831175518 70 304 0.0 1.0 0.00 0.00 0.00 65 1011.4
20260831175015 69 297 0.0 0.0 0.00 0.00 0.00 65 1011.5
20260831174514 69 299 2.0 2.0 0.00 0.00 0.00 65 1011.3
20260831174009 69 311 1.0 1.0 0.00 0.00 0.00 62 1011.4
20260831173507 68 304 1.0 1.0 0.00 0.00 0.00 66 1011.7
20260831173004 68 290 2.0 2.0 0.00 0.00 0.00 68 1011.8
20260831172459 67 354 1.0 2.0 0.00 0.00 0.00 69 1011.9
20260831171953 66 298 1.0 1.0 0.00 0.00 0.00 70 1011.8
20260831171449 66 310 2.0 2.0 0.00 0.00 0.00 71 1011.8
20260831170946 65 311 1.0 1.0 0.00 0.00 0.00 72 1011.9
20260831170442 65 310 0.0 1.0 0.00 0.00 0.00 73 1012.0
20260831165939 65 320 1.0 1.0 0.00 0.00 0.00 73 1012.0
20260831165434 64 285 0.0 1.0 0.00 0.00 0.00 74 1012.0
20260831164931 65 300 2.0 3.0 0.00 0.00 0.00 73 1012.1
20260831164426 64 313 0.0 0.0 0.00 0.00 0.00 74 1012.1
20260831163921 64 313 2.0 2.0 0.00 0.00 0.00 75 1012.0
20260831163417 65 302 1.0 1.0 0.00 0.00 0.00 74 1012.1
20260831162915 64 330 0.0 0.0 0.00 0.00 0.00 74 1012.0
20260831162411 64 311 0.0 1.0 0.00 0.00 0.00 75 1012.2
20260831161909 65 307 0.0 1.0 0.00 0.00 0.00 75 1012.3
20260831161406 65 328 0.0 1.0 0.00 0.00 0.00 74 1012.2
20260831160901 65 310 0.0 1.0 0.00 0.00 0.00 76 1012.4
20260831160356 65 304 1.0 1.0 0.00 0.00 0.00 75 1012.5
20260831155851 64 301 1.0 1.0 0.00 0.00 0.00 77 1012.3
20260831155350 65 307 0.0 1.0 0.00 0.00 0.00 74 1012.4
20260831154846 65 317 1.0 1.0 0.00 0.00 0.00 77 1012.3
20260831154343 64 305 0.0 1.0 0.00 0.00 0.00 77 1012.5
20260831153841 63 304 0.0 1.0 0.00 0.00 0.00 79 1012.4
20260831153337 63 8 1.0 1.0 0.00 0.00 0.00 79 1012.3
20260831152833 63 316 0.0 1.0 0.00 0.00 0.00 80 1012.6
20260831152329 63 327 0.0 0.0 0.00 0.00 0.00 80 1012.3
20260831151823 62 318 0.0 1.0 0.00 0.00 0.00 81 1012.6
20260831151322 61 351 1.0 1.0 0.00 0.00 0.00 83 1012.8
20260831150818 62 162 2.0 2.0 0.00 0.00 0.00 82 1012.7
20260831150313 62 319 0.0 0.0 0.00 0.00 0.00 83 1012.8
20260831145812 61 320 0.0 0.0 0.00 0.00 0.00 83 1012.8
20260831145309 61 307 0.0 0.0 0.00 0.00 0.00 83 1012.7
20260831144804 60 314 0.0 0.0 0.00 0.00 0.00 87 1012.7
20260831144300 58 314 0.0 0.0 0.00 0.00 0.00 92 1012.8
20260831143800 57 315 0.0 0.0 0.00 0.00 0.00 98 1012.8
20260831143255 56 320 0.0 0.0 0.00 0.00 0.00 99 1012.6
20260831142750 55 319 0.0 0.0 0.00 0.00 0.00 99 1012.6
20260831142245 54 319 0.0 0.0 0.00 0.00 0.00 99 1012.6
20260831141740 52 319 0.0 0.0 0.00 0.00 0.00 99 1012.8
20260831141240 52 319 0.0 0.0 0.00 0.00 0.00 99 1012.7
20260831140735 51 319 0.0 0.0 0.00 0.00 0.00 99 1012.7
20260831140229 51 319 0.0 0.0 0.00 0.00 0.00 99 1012.7
20260831135727 52 319 0.0 0.0 0.00 0.00 0.00 99 1012.8
20260831135223 52 319 0.0 0.0 0.00 0.00 0.00 99 1012.9
20260831134718 52 319 0.0 0.0 0.00 0.00 0.00 99 1012.7
20260831134214 52 319 0.0 0.0 0.00 0.00 0.00 99 1012.7
20260831133713 52 319 0.0 0.0 0.00 0.00 0.00 99 1012.8
20260831133207 52 319 0.0 0.0 0.00 0.00 0.00 99 1012.9
20260831132703 51 319 0.0 0.0 0.00 0.00 0.00 99 1012.7
20260831132202 51 319 0.0 0.0 0.00 0.00 0.00 99 1013.0
20260831131657 51 319 0.0 0.0 0.00 0.00 0.00 99 1012.9
20260831131154 51 319 0.0 0.0 0.00 0.00 0.00 99 1013.0
20260831130649 51 319 0.0 0.0 0.00 0.00 0.00 99 1013.0
20260831130144 52 319 0.0 0.0 0.00 0.00 0.00 99 1013.1
20260831125642 52 319 0.0 0.0 0.00 0.00 0.00 99 1013.0
20260831125138 52 319 0.0 0.0 0.00 0.00 0.00 99 1013.3
20260831124634 52 319 0.0 0.0 0.00 0.00 0.00 99 1013.1
20260831124130 53 319 0.0 0.0 0.00 0.00 0.00 99 1013.3
20260831123629 53 319 0.0 0.0 0.00 0.00 0.00 99 1013.1
20260831123129 53 319 0.0 0.0 0.00 0.00 0.00 99 1013.2
20260831122628 53 319 0.0 0.0 0.00 0.00 0.00 99 1013.1
20260831122125 53 319 0.0 0.0 0.00 0.00 0.00 99 1013.2
20260831121624 53 319 0.0 0.0 0.00 0.00 0.00 99 1013.2
20260831121120 53 319 0.0 0.0 0.00 0.00 0.00 99 1013.3
20260831120615 53 319 0.0 0.0 0.00 0.00 0.00 99 1013.4
20260831120110 53 319 0.0 0.0 0.00 0.00 0.00 98 1013.4
20260831115606 53 319 0.0 0.0 0.00 0.00 0.00 98 1013.3
20260831115101 53 319 0.0 0.0 0.00 0.00 0.00 98 1013.3
20260831114600 53 319 0.0 0.0 0.00 0.00 0.00 97 1013.5
20260831114055 54 319 0.0 0.0 0.00 0.00 0.00 97 1013.6
20260831113554 54 319 0.0 0.0 0.00 0.00 0.00 97 1013.6
20260831113050 54 319 0.0 0.0 0.00 0.00 0.00 97 1013.4
20260831112549 54 319 0.0 0.0 0.00 0.00 0.00 96 1013.6
20260831112044 55 319 0.0 0.0 0.00 0.00 0.00 96 1013.5
20260831111540 55 319 0.0 0.0 0.00 0.00 0.00 96 1013.5
20260831111036 55 319 0.0 0.0 0.00 0.00 0.00 96 1013.8
20260831110531 55 319 0.0 0.0 0.00 0.00 0.00 96 1013.4
20260831110026 55 320 0.0 0.0 0.00 0.00 0.00 95 1013.6
20260831105525 56 320 0.0 0.0 0.00 0.00 0.00 95 1013.8
20260831105020 56 319 0.0 0.0 0.00 0.00 0.00 94 1013.6
20260831104517 56 320 0.0 0.0 0.00 0.00 0.00 94 1013.6
20260831104012 56 321 0.0 0.0 0.00 0.00 0.00 94 1013.7
20260831103507 57 321 0.0 0.0 0.00 0.00 0.00 93 1013.9
20260831103003 57 321 0.0 0.0 0.00 0.00 0.00 93 1013.7
20260831102457 57 322 0.0 0.0 0.00 0.00 0.00 93 1013.7
20260831101952 57 313 0.0 0.0 0.00 0.00 0.00 93 1013.7
20260831101447 57 310 0.0 0.0 0.00 0.00 0.00 93 1013.7
20260831100943 57 308 0.0 1.0 0.00 0.00 0.00 93 1013.8
20260831100439 57 302 0.0 0.0 0.00 0.00 0.00 93 1014.0
20260831095934 57 308 0.0 0.0 0.00 0.00 0.00 93 1014.0
20260831095433 57 315 0.0 0.0 0.00 0.00 0.00 93 1014.0
20260831094928 57 315 0.0 0.0 0.00 0.00 0.00 93 1014.1
20260831094424 57 318 0.0 0.0 0.00 0.00 0.00 92 1014.2
20260831093920 57 308 0.0 0.0 0.00 0.00 0.00 92 1014.0
20260831093414 57 309 0.0 0.0 0.00 0.00 0.00 91 1014.1
20260831092912 58 309 0.0 0.0 0.00 0.00 0.00 90 1014.2
20260831092407 58 309 0.0 0.0 0.00 0.00 0.00 90 1014.2
20260831091902 58 317 0.0 0.0 0.00 0.00 0.00 90 1014.5
20260831091357 58 292 0.0 1.0 0.00 0.00 0.00 91 1014.1
20260831090852 58 317 0.0 0.0 0.00 0.00 0.00 91 1014.4
20260831090348 57 288 0.0 1.0 0.00 0.00 0.00 92 1014.4
20260831085844 57 310 0.0 0.0 0.00 0.00 0.00 92 1014.3
20260831085338 57 311 0.0 0.0 0.00 0.00 0.00 91 1014.4
20260831084833 57 311 0.0 0.0 0.00 0.00 0.00 91 1014.3
20260831084329 57 310 0.0 0.0 0.00 0.00 0.00 92 1014.7
20260831083825 57 304 0.0 0.0 0.00 0.00 0.00 91 1014.6
20260831083321 57 303 0.0 0.0 0.00 0.00 0.00 91 1014.7
20260831082819 58 303 0.0 0.0 0.00 0.00 0.00 90 1014.6
20260831082314 58 303 0.0 0.0 0.00 0.00 0.00 90 1014.7
20260831081810 58 303 0.0 0.0 0.00 0.00 0.00 90 1014.8
20260831081305 58 303 1.0 1.0 0.00 0.00 0.00 90 1014.8
20260831080801 58 303 0.0 0.0 0.00 0.00 0.00 90 1015.0
20260831080255 58 303 0.0 0.0 0.00 0.00 0.00 89 1015.2
20260831075751 58 303 0.0 0.0 0.00 0.00 0.00 88 1015.1
20260831075247 59 303 0.0 0.0 0.00 0.00 0.00 86 1015.0
20260831074746 59 303 0.0 0.0 0.00 0.00 0.00 86 1015.2
20260831074240 60 303 0.0 0.0 0.00 0.00 0.00 85 1015.1
20260831073736 60 305 0.0 0.0 0.00 0.00 0.00 85 1015.2
20260831073235 60 300 0.0 0.0 0.00 0.00 0.00 84 1015.3
20260831072730 60 311 0.0 0.0 0.00 0.00 0.00 84 1015.1
20260831072227 60 310 0.0 0.0 0.00 0.00 0.00 83 1015.4
20260831071726 61 310 0.0 0.0 0.00 0.00 0.00 83 1015.3
20260831071221 61 319 0.0 0.0 0.00 0.00 0.00 82 1015.3
20260831070715 61 323 0.0 1.0 0.00 0.00 0.00 82 1015.6
20260831070209 61 302 0.0 1.0 0.00 0.00 0.00 82 1015.3
20260831065708 61 315 0.0 0.0 0.00 0.00 0.00 81 1015.5
20260831065207 62 294 0.0 0.0 0.00 0.00 0.00 80 1015.5
20260831064702 62 313 0.0 0.0 0.00 0.00 0.00 80 1015.7
20260831064157 62 307 0.0 0.0 0.00 0.00 0.00 79 1015.7
20260831063653 62 290 1.0 1.0 0.00 0.00 0.00 79 1015.6
20260831063148 62 328 0.0 0.0 0.00 0.00 0.00 79 1015.6
20260831062648 63 300 0.0 1.0 0.00 0.00 0.00 78 1015.7
20260831062142 63 314 0.0 0.0 0.00 0.00 0.00 78 1015.6
20260831061640 63 268 1.0 2.0 0.00 0.00 0.00 78 1015.8
20260831061136 63 306 1.0 1.0 0.00 0.00 0.00 77 1015.8
20260831060632 63 28 1.0 1.0 0.00 0.00 0.00 77 1015.8
20260831060132 63 317 0.0 0.0 0.00 0.00 0.00 77 1015.8
20260831055631 63 300 0.0 0.0 0.00 0.00 0.00 77 1016.0
20260831055127 63 294 0.0 1.0 0.00 0.00 0.00 76 1015.8
20260831054626 63 298 0.0 1.0 0.00 0.00 0.00 77 1015.9
20260831054120 63 302 1.0 1.0 0.00 0.00 0.00 76 1016.0
20260831053615 63 297 0.0 0.0 0.00 0.00 0.00 76 1016.0
20260831053114 63 314 0.0 0.0 0.00 0.00 0.00 76 1016.1
20260831052612 63 357 0.0 1.0 0.00 0.00 0.00 75 1016.1
20260831052107 64 314 0.0 1.0 0.00 0.00 0.00 75 1016.3
20260831051605 64 286 1.0 1.0 0.00 0.00 0.00 75 1016.2
20260831051104 64 308 0.0 1.0 0.00 0.00 0.00 74 1016.2
20260831050604 64 302 0.0 0.0 0.00 0.00 0.00 74 1016.4
20260831045557 64 308 0.0 0.0 0.00 0.00 0.00 74 1016.4
20260831045052 64 297 0.0 0.0 0.00 0.00 0.00 74 1016.5
20260831044548 64 328 0.0 1.0 0.00 0.00 0.00 74 1016.6
20260831044042 64 310 0.0 0.0 0.00 0.00 0.00 73 1016.8
20260831043537 64 297 0.0 1.0 0.00 0.00 0.00 74 1016.4
20260831043033 64 297 0.0 0.0 0.00 0.00 0.00 74 1016.6
20260831042532 64 317 0.0 0.0 0.00 0.00 0.00 73 1016.5
20260831042027 64 318 0.0 0.0 0.00 0.00 0.00 73 1016.9
20260831041522 64 329 0.0 1.0 0.00 0.00 0.00 73 1016.8
20260831041021 64 318 0.0 0.0 0.00 0.00 0.00 72 1016.8
20260831040516 64 319 0.0 0.0 0.00 0.00 0.00 72 1016.6
20260831040015 65 126 0.0 0.0 0.00 0.00 0.00 71 1016.7
20260831035508 65 312 0.0 0.0 0.00 0.00 0.00 70 1016.7
20260831035003 65 320 0.0 0.0 0.00 0.00 0.00 70 1016.8
20260831034457 65 305 0.0 0.0 0.00 0.00 0.00 70 1016.7
20260831033953 65 315 0.0 1.0 0.00 0.00 0.00 69 1016.7
20260831033448 65 299 0.0 0.0 0.00 0.00 0.00 69 1016.5
20260831032943 65 307 1.0 1.0 0.00 0.00 0.00 69 1016.6
20260831032438 66 312 0.0 1.0 0.00 0.00 0.00 68 1016.8
20260831031933 66 297 0.0 0.0 0.00 0.00 0.00 68 1016.8
20260831031433 66 295 0.0 1.0 0.00 0.00 0.00 67 1016.7
20260831030932 66 311 0.0 0.0 0.00 0.00 0.00 67 1016.9
20260831030431 67 310 0.0 0.0 0.00 0.00 0.00 66 1016.8
20260831025930 67 287 2.0 2.0 0.00 0.00 0.00 65 1016.9
20260831025429 67 309 0.0 0.0 0.00 0.00 0.00 65 1016.7
20260831024925 67 273 0.0 0.0 0.00 0.00 0.00 64 1016.9
20260831024424 67 302 0.0 1.0 0.00 0.00 0.00 64 1016.6
20260831023919 68 300 0.0 0.0 0.00 0.00 0.00 64 1016.9
20260831023418 68 305 0.0 1.0 0.00 0.00 0.00 63 1016.9
20260831022913 68 306 0.0 0.0 0.00 0.00 0.00 62 1016.9
20260831022412 68 309 0.0 0.0 0.00 0.00 0.00 63 1016.9
20260831021906 68 308 1.0 1.0 0.00 0.00 0.00 62 1017.0
20260831021406 69 316 0.0 0.0 0.00 0.00 0.00 61 1017.0
20260831020902 69 310 1.0 1.0 0.00 0.00 0.00 60 1017.0
20260831020401 69 336 2.0 2.0 0.00 0.00 0.00 60 1017.0
20260831015856 69 134 2.0 3.0 0.00 0.00 0.00 60 1017.2
20260831015352 69 306 2.0 2.0 0.00 0.00 0.00 59 1017.0
20260831014852 70 281 1.0 3.0 0.00 0.00 0.00 59 1017.1
20260831014347 70 308 0.0 1.0 0.00 0.00 0.00 59 1017.3
20260831013843 70 334 1.0 1.0 0.00 0.00 0.00 58 1017.2
20260831013338 71 309 2.0 2.0 0.00 0.00 0.00 57 1017.0
20260831012832 71 296 0.0 1.0 0.00 0.00 0.00 56 1017.0
20260831012328 71 308 0.0 1.0 0.00 0.00 0.00 56 1017.0
20260831011828 71 157 0.0 1.0 0.00 0.00 0.00 56 1017.3
20260831011323 71 306 0.0 0.0 0.00 0.00 0.00 55 1017.2
20260831010819 71 309 0.0 1.0 0.00 0.00 0.00 56 1017.4
20260831010318 71 303 0.0 1.0 0.00 0.00 0.00 56 1017.4
20260831005814 71 320 0.0 1.0 0.00 0.00 0.00 55 1017.5
20260831005310 71 318 2.0 3.0 0.00 0.00 0.00 55 1017.6
20260831004804 71 322 0.0 1.0 0.00 0.00 0.00 55 1017.6
20260831004301 71 247 1.0 2.0 0.00 0.00 0.00 55 1017.6
20260831003756 71 276 2.0 2.0 0.00 0.00 0.00 54 1017.7
20260831003252 71 323 0.0 1.0 0.00 0.00 0.00 54 1017.6
20260831002751 71 319 1.0 1.0 0.00 0.00 0.00 53 1017.8
20260831002250 71 288 1.0 1.0 0.00 0.00 0.00 52 1017.9
20260831001747 71 295 2.0 2.0 0.00 0.00 0.00 53 1017.7
20260831001241 71 274 1.0 1.0 0.00 0.00 0.00 52 1018.0
20260831000738 71 303 1.0 1.0 0.00 0.00 0.00 52 1017.7
20260831000233 71 296 2.0 3.0 0.00 0.00 0.00 54 1017.9
20260830235732 71 303 2.0 2.0 0.00 0.00 0.00 55 1018.0
20260830235227 71 294 2.0 2.0 0.00 0.00 0.00 53 1017.8
20260830234722 71 302 1.0 1.0 0.00 0.00 0.00 53 1018.0
20260830234218 71 304 1.0 2.0 0.00 0.00 0.00 53 1018.0
20260830233713 71 306 3.0 3.0 0.00 0.00 0.00 53 1018.0
20260830233209 71 281 1.0 1.0 0.00 0.00 0.00 53 1018.4
20260830232704 71 310 1.0 1.0 0.00 0.00 0.00 53 1018.1
20260830232200 71 301 0.0 1.0 0.00 0.00 0.00 54 1018.2
20260830231656 71 305 1.0 2.0 0.00 0.00 0.00 54 1018.4
20260830231155 71 301 1.0 1.0 0.00 0.00 0.00 53 1018.3
20260830230650 71 288 2.0 2.0 0.00 0.00 0.00 53 1018.2
20260830230145 71 269 1.0 1.0 0.00 0.00 0.00 54 1018.2
20260830225640 71 239 1.0 2.0 0.00 0.00 0.00 53 1018.4
20260830225135 71 304 2.0 2.0 0.00 0.00 0.00 53 1018.4
20260830224634 70 274 1.0 1.0 0.00 0.00 0.00 54 1018.7
20260830224130 70 45 3.0 3.0 0.00 0.00 0.00 54 1018.5
20260830223627 70 310 2.0 2.0 0.00 0.00 0.00 54 1018.9
20260830223126 70 299 1.0 1.0 0.00 0.00 0.00 55 1018.8
20260830222620 70 299 1.0 2.0 0.00 0.00 0.00 54 1019.1
20260830222117 71 338 1.0 1.0 0.00 0.00 0.00 54 1019.0
20260830221612 71 295 2.0 5.0 0.00 0.00 0.00 54 1019.2
20260830221108 70 309 0.0 0.0 0.00 0.00 0.00 55 1019.4
20260830220603 70 288 1.0 2.0 0.00 0.00 0.00 53 1019.3
20260830220056 70 288 2.0 5.0 0.00 0.00 0.00 54 1019.3
20260830215555 70 322 1.0 2.0 0.00 0.00 0.00 54 1019.6
20260830215049 70 281 2.0 3.0 0.00 0.00 0.00 54 1019.6
20260830214544 70 274 3.0 3.0 0.00 0.00 0.00 53 1019.5
20260830214039 70 211 3.0 3.0 0.00 0.00 0.00 54 1019.6
20260830213534 70 305 1.0 1.0 0.00 0.00 0.00 54 1019.7
20260830213029 70 79 5.0 7.0 0.00 0.00 0.00 54 1019.8